Regional Weather Roundup
Issued by NWS

Home | Current Version | Previous Version | Graphics & Text | Print | Product List | Glossary On
Versions: 1 2 3 4 5 6 7 8 9 10 11 12 13 14 15 16 17 18 19 20 21 22 23 24 25 26 27 28 29 30 31 32 33 34 35 36 37 38 39 40 41 42 43 44 45 46 47 48 49 50
000
ASUS43 KFSD 190602
RWRSD

WEATHER ROUNDUP FOR SOUTH DAKOTA
NATIONAL WEATHER SERVICE SIOUX FALLS SD
100 AM CDT SUN APR 19 2015

NOTE: "FAIR" INDICATES FEW OR NO CLOUDS BELOW 12,000 FEET WITH NO
SIGNIFICANT WEATHER AND/OR OBSTRUCTIONS TO VISIBILITY.


SDZ001>005-009-010-012>017-190700-
NORTHWEST AND NORTH CENTRAL SOUTH DAKOTA

CITY           SKY/WX    TMP DP  RH WIND       PRES   REMARKS
BUFFALO          N/A     46  31  55 NW22      29.96S
FAITH            N/A     46  43  89 N20       29.96R
MOBRIDGE       LGT RAIN  49  47  93 NW14      29.87R
$$

SDZ012>016-024>037-041>051-057-063-072>074-190700-
SOUTHWEST AND SOUTH CENTRAL SOUTH DAKOTA

CITY           SKY/WX    TMP DP  RH WIND       PRES   REMARKS
RAPID CTY ARPT CLOUDY    45  39  79 N23G32    29.98R
PIERRE         CLOUDY    47  45  93 NW16      29.85R
CUSTER         CLOUDY    36  29  75 N15G26    29.98R
ELLSWORTH AFB  CLOUDY    45  40  83 N22       29.99R
PHILIP         LGT RAIN  47  45  93 N12       29.91F
PINE RIDGE     CLOUDY    45  41  86 N18G26    29.96R
WINNER         CLOUDY    49  45  86 NW17      29.85S
$$

SDZ004>011-016>023-039-040-190700-
NORTHEAST SOUTH DAKOTA

CITY           SKY/WX    TMP DP  RH WIND       PRES   REMARKS
ABERDEEN       LGT RAIN  52  50  93 NE10      29.78F
WATERTOWN      LGT RAIN  52  51  97 E3        29.75F
BROOKINGS      CLOUDY    55  54  94 S6        29.76F
SISSETON         N/A     51  50  96 E6        29.77F
$$

SDZ017-020-022-023-036>040-048>070-190700-
SOUTHEAST SOUTH DAKOTA

CITY           SKY/WX    TMP DP  RH WIND       PRES   REMARKS
SIOUX FALLS    CLOUDY    57  55  93 S10       29.77F
HURON          LGT RAIN  54  54 100 W7        29.76F FOG
MITCHELL       CLOUDY    56  55  97 W6        29.77F FOG
YANKTON          N/A     54  52  94 SE5       29.77S VSB<1/4
$$

ABBREVIATIONS USED IN REMARKS
   TC - TEMPERATURE IN CELSIUS
  WCI - WIND CHILL INDEX
   HX - HEAT INDEX
  VSB - VISIBILITY



USA.gov is the U.S. government's official web portal to all federal, state and local government web resources and services.